カタログに戻る

TITAN 3C TRANSTAGE DEB

運用中VLEO
NORAD 3386·DEBRIS·🇺🇸 United States

打ち上げ Oct 15, 1965 から Cape Canaveral Space Force Station

Loading…

次のパス (今後24時間)

TLE

最新Source: Space-Track

元期: Sep 14, 2026, 06:35 UTC

1 03386U 65082MY  26257.27459722  .00002278  00000-0  18034-3 0  9999
2 03386  32.3720 341.9757 0005443   6.9342 353.1393 14.99010226259204

AllMySatでTITAN 3C TRANSTAGE DEBをリアルタイム追跡

Download on the App Store